User: anonymous   Login
Location: Tel Aviv
(32.0670°N, 34.7670°E)
Time: 11:26:43
(UTC+02:00)
Language:

Meteor 2-3 Rocket - Orbit

View from above orbital plane
View from above orbital plane
View from above satellite
View from above satellite

Ground track
Ground track

The orbit data is extracted from the following two-line orbital elements,

1 10515U 77117B   25317.06957257  .00000259  00000-0  14180-3 0  9997
2 10515  81.2458 175.4479 0029028 220.1738 139.7287 14.09086191461921
Epoch (UTC): 13 November 2025 01:40:11
Eccentricity: 0.0029028
inclination: 81.2458°
perigee height: 841 km
apogee height: 883 km
right ascension of ascending node: 175.4479°
argument of perigee: 220.1738°
revolutions per day: 14.09086191
mean anomaly at epoch: 139.7287°
orbit number at epoch: 46192

The dashed part of the orbit path shows where the satellite is in the earth's shadow,  

DLR